Bloomington, IN

5:34 AM EDT on October 22, 2017 (GMT -0400)
Monroe County

Weather History for KBMG - January, 2010

Change the Weather History Date:

Tuesday, January 5, 2010

  Actual Average Record
Temperature  
Mean Temperature 14 °F 29 °F  
Max Temperature 21 °F 38 °F 62 °F (2007)
Min Temperature 6 °F 21 °F -13 °F (1999)
Degree Days  
Heating Degree Days 51 36  
Month to date heating degree days 257 180  
Since 1 July heating degree days 2325 2253  
Cooling Degree Days 0 0  
Month to date cooling degree days 0 0  
Year to date cooling degree days 0 0  
Moisture  
Dew Point 7 °F    
Average Humidity 73    
Maximum Humidity 88    
Minimum Humidity 57    
Precipitation  
Precipitation T in 0.13 in 2.30 in (2005)
Month to date precipitation T 0.67  
Year to date precipitation T 0.67  
Sea Level Pressure  
Sea Level Pressure 30.24 in    
Wind  
Wind Speed 8 mph (WNW)    
Max Wind Speed 14 mph    
Max Gust Speed 20 mph    
Visibility 8 miles    
Events Snow    
T = Trace of Precipitation, MM = Missing Value Source: NWS Daily Summary

Daily Weather History Graph

Daily Weather History Graph

Search for Another Location

Airport or City:

Trip Planner

Search our weather history database for the weather conditions in past years. The results will help you decide how hot, cold, wet, or windy it might be!

Date:

Astronomy

Jan. 05, 2010 Rise Set
Actual Time 8:06 AM EST 5:37 PM EST
Civil Twilight 7:36 AM EST 6:07 PM EST
Nautical Twilight 7:02 AM EST 6:41 PM EST
Astronomical Twilight 6:30 AM EST 7:13 PM EST
Moon 11:51 PM EST (1/5) 11:06 AM EST (1/5)
Length of Visible Light 10h 31m
Length of Day
9h 31m
Waning Gibbous, 69% of the Moon is Illuminated
Jan 5
Waning Gibbous
Jan 7
Last Quarter
Jan 15
New
Jan 23
First Quarter
Jan 30
Full

Hourly Weather History & Observations

Time (EST) Temp. Windchill Dew Point Humidity Pressure Visibility Wind Dir Wind Speed Gust Speed Precip Events Conditions
12:05 AM 10.4 °F 2.2 °F 6.8 °F 85% 30.21 in 2.5 mi WNW 4.6 mph - 0.00 in Snow Light Snow
12:36 AM 10.4 °F -0.4 °F 6.8 °F 85% 30.20 in 4.0 mi WNW 6.9 mph - 0.00 in Snow Light Snow
12:53 AM 10.9 °F -0.8 °F 6.1 °F 81% 30.24 in 8.0 mi WNW 8.1 mph - 0.00 in   Overcast
1:22 AM 10.4 °F 2.2 °F 6.8 °F 85% 30.20 in 5.0 mi Variable 4.6 mph - 0.00 in Snow Light Snow
1:53 AM 10.9 °F 0.2 °F 5.0 °F 77% 30.24 in 8.0 mi NW 6.9 mph - 0.00 in   Overcast
2:53 AM 9.0 °F -3.2 °F 3.9 °F 80% 30.24 in 9.0 mi WNW 8.1 mph - N/A   Overcast
3:44 AM 8.6 °F -3.7 °F 3.2 °F 79% 30.20 in 10.0 mi WNW 8.1 mph - N/A   Mostly Cloudy
3:53 AM 8.1 °F -2.0 °F 3.0 °F 80% 30.25 in 10.0 mi WNW 5.8 mph - N/A   Mostly Cloudy
4:00 AM 8.6 °F -1.3 °F 3.2 °F 79% 30.20 in 9.0 mi WNW 5.8 mph - N/A   Scattered Clouds
4:53 AM 7.0 °F -5.7 °F 3.0 °F 84% 30.25 in 9.0 mi WNW 8.1 mph - N/A   Partly Cloudy
5:53 AM 7.0 °F -3.3 °F 3.0 °F 84% 30.25 in 9.0 mi WNW 5.8 mph - N/A   Overcast
6:53 AM 7.0 °F -5.7 °F 1.9 °F 80% 30.25 in 6.0 mi WNW 8.1 mph - N/A   Haze
7:53 AM 6.1 °F -5.6 °F 1.9 °F 83% 30.26 in 7.0 mi WNW 6.9 mph - N/A   Mostly Cloudy
8:53 AM 7.0 °F -1.7 °F 3.0 °F 84% 30.27 in 5.0 mi West 4.6 mph - N/A   Clear
9:53 AM 9.0 °F -2.2 °F 3.9 °F 80% 30.28 in 2.0 mi WNW 6.9 mph - N/A   Haze
10:04 AM 10.4 °F -2.4 °F 5.0 °F 79% 30.23 in 10.0 mi West 9.2 mph - N/A   Clear
10:53 AM 12.0 °F 2.7 °F 5.0 °F 73% 30.28 in 10.0 mi WNW 5.8 mph - N/A   Clear
11:53 AM 16.0 °F 5.3 °F 7.0 °F 68% 30.27 in 10.0 mi WSW 8.1 mph - N/A   Clear
12:53 PM 19.0 °F 7.5 °F 8.1 °F 62% 30.25 in 10.0 mi West 10.4 mph - N/A   Clear
1:53 PM 19.9 °F 8.6 °F 8.1 °F 60% 30.23 in 10.0 mi WNW 10.4 mph - N/A   Clear
2:53 PM 21.0 °F 9.9 °F 8.1 °F 57% 30.22 in 10.0 mi West 10.4 mph - N/A   Clear
3:53 PM 21.0 °F 9.9 °F 8.1 °F 57% 30.23 in 10.0 mi WNW 10.4 mph - N/A   Clear
4:53 PM 19.0 °F 9.0 °F 8.1 °F 62% 30.24 in 10.0 mi NW 8.1 mph - N/A   Scattered Clouds
5:07 PM 19.4 °F 9.5 °F 8.6 °F 63% 30.20 in 10.0 mi WNW 8.1 mph - N/A   Mostly Cloudy
5:53 PM 18.0 °F 9.8 °F 9.0 °F 68% 30.25 in 10.0 mi WNW 5.8 mph - N/A   Overcast
6:53 PM 16.0 °F 6.3 °F 9.0 °F 74% 30.26 in 10.0 mi NW 6.9 mph - N/A   Overcast
7:48 PM 15.8 °F 6.1 °F 10.4 °F 79% 30.21 in 2.5 mi WSW 6.9 mph - 0.00 in Snow Light Snow
7:53 PM 16.0 °F 6.3 °F 10.0 °F 77% 30.26 in 3.0 mi West 6.9 mph - 0.00 in Snow Light Snow
8:53 PM 16.0 °F 4.4 °F 10.9 °F 81% 30.25 in 4.0 mi West 9.2 mph - 0.00 in Snow Light Snow
9:29 PM 15.8 °F 8.6 °F 10.4 °F 79% 30.21 in 9.0 mi NW 4.6 mph - 0.00 in   Overcast
9:53 PM 16.0 °F 7.4 °F 10.9 °F 81% 30.26 in 7.0 mi NW 5.8 mph - 0.00 in   Overcast
10:53 PM 15.1 °F 6.4 °F 10.0 °F 80% 30.26 in 7.0 mi WNW 5.8 mph - N/A   Overcast
11:53 PM 14.0 °F 3.9 °F 10.0 °F 84% 30.26 in 8.0 mi WNW 6.9 mph - N/A   Overcast